CZ-4 DEB

Satellite information

Favourite Embed

Satellite Type and Status

DEBRISIN ORBIT

Key statistics

Satellite CZ-4 DEB at a glance.

Uptime

9338

Days in orbit

Revolutions

≈ 14.7

Per day

Orbit

SSO

Sun Synchronous Orbit

Inclination

98.4

Latest

Satellite identification and parameters

Extended collection of information and parameters for CZ-4 DEB.

Object identification

Identified? True

Debris? True

Object name: CZ-4 DEB

International designator: 1999-057GL

Object number (NORAD): 26300

Object ID (CCSDS): 26300

Country: PEOPLES REPUBLIC OF CHINA (PRC)

Current information (Y/N): Y

RCS size: SMALL

Orbital parameters

Period: 98.252 minutes

Inclination: 98.3993 deg

SMA: 7053.216 km

Apoapsis: 720.661 km

Periapsis: 629.5 km

RAAN: 183.5013 deg

Eccentricy: 0.0064624

Argument of periapsis: 80.5717 deg

Mean anomaly: 39.3071 deg

Mean motion: 14.6562212 rev/day

Mean motion (dot): 0.00005223 rev/day2

B* drag term: 0.00094111 1/REarth

Two-line elements (TLE)

Creation date: May 8, 2025, 3:01 a.m.

Reference frame: TEME

Reference center: EARTH

Epoch: May 7, 2025, 4:56 p.m. UTC

TLE line 0: 0 CZ-4 DEB

TLE line 1: 1 26300U 99057GL 25127.70587207 .00005223 00000-0 94111-3 0 9995

TLE line 2: 2 26300 98.3993 183.5013 0064624 80.5717 39.3071 14.65622120326659

Live tracking on map

Real-time ground track for satellite CZ-4 DEB.

In-orbit conjunctions

A list of the most updated potential collisions computed for object CZ-4 DEB.

Target Orbit TCA Probability of collision Miss distance Type
COSMOS 374 DEB MEO 2025-02-17 09:59:00 0.001288744 52.0 (m) DEBRIS
MAGION 2 HEO 2024-11-26 14:50:56 0.0001699514 69.0 (m) PAYLOAD
THORAD AGENA D DEB SSO 2024-06-25 01:48:09 0.0005254622 48.0 (m) DEBRIS

Associated space launch

The CBERS (China Brazil Earth Resources Satellite) or ZY 1 (Zi Yuan) satellites are designed for global coverage and include cameras to make optical observations and a data collecting system to gather data on the environment. They are unique systems due to the use of on-board sensors which combine features that are especially designed to resolve the broad range of space and time scales involved in the monitoring and preservation of the ecosystem. They are operated jointly by the China Centre for Resources Satellite Data and Application (CRESDA) and the Brazilian INPE (Instituto Nacional de Pesquisas Espaciais, National Institute of Space Research).

CZ-4 DEB was lifted into orbit during the mission ‘Long March 4B | Zi Yuan 1-1’, on board a Long March 4B space rocket.

The launch took place on Oct. 14, 1999, 3:15 a.m. from Launch Complex 7.

For more information about the launch, click the button.

Launch to space Long March 4B | Zi Yuan 1-1
Long March 4B | Zi Yuan 1-1

Agency: N/A

Status: Launch Successful

Launch date: Oct. 14, 1999, 3:15 a.m. UTC

Rocket: Long March 4B

Launch pad: Launch Complex 7

Location: Taiyuan Satellite Launch Center, People's Republic of China

...

Latest news about this satellite

There are no fresh news available about this satellite. Check back as we update our databases every day.


Newsletter sign-up

Weekly statistics, charts and insights to help you stay on top of the space industry.